Location: Newark
(45.4422°N, 16.2769°E)
Time: 22:29:12
(UTC+00:00)

S-56A Canister/Altair - Pass Details

Date: 20 December 2019
Orbit: 634 x 2498 km, 38.9° (Epoch: 27 January)

Event Time Altitude Azimuth Distance (km) Brightness Sun altitude
Rises 04:28:41 0° 199° (SSW) 4,421 11.4 -20.4°
Reaches altitude 10° 04:31:56 10° 187° (S) 3,722 11.1 -19.9°
Maximum altitude 04:39:47 26° 135° (SE) 3,189 11.3 -18.5°
Drops below altitude 10° 04:49:50 10° 86° (E) 4,874 12.7 -16.9°
Sets 04:54:52 0° 77° (ENE) 6,059 13.2 -16.0°
